Hourly Data Report for May 25, 2012

All times are specified in Local Standard Time (LST). Add 1 hour to adjust for Daylight Saving Time where and when it is observed.

ST. JOHN'S INTL A
NEWFOUNDLAND

47°37'07.000" N
52°45'09.000" W
140.50 m
8403505
71801
YYT

Download Data

Hourly Data (May 2012)
Hourly Data Report for May 25, 2012
Temp Definition
°C
Dew Point Temp Definition
°C
Rel Hum Definition
%
Wind Dir Definition
10's deg

Wind Spd Definition
km/h
Visibility Definition
km
Stn Press Definition
kPa
Hmdx Definition


Wind Chill Definition


Weather Definition


TIME
00:30 Legend Double Dagger 2.3 -1.0 79 21 8 10.0 101.08     LegendNANA
01:30 Legend Double Dagger 2.8 -1.2 75 22 11 10.0 101.09     LegendNANA
02:30 Legend Double Dagger 2.0 -1.4 78 19 8 10.0 101.04     Mainly Clear
03:30 Legend Double Dagger 3.4 1.9 90 24 11 10.0 101.03     LegendNANA
04:30 Legend Double Dagger 5.1 2.8 85 25 27 10.0 101.00     LegendNANA
05:30 Legend Double Dagger 6.4 3.2 80 25 32 10.0 101.02     Mostly Cloudy
06:30 Legend Double Dagger 7.4 3.7 77 26 28 10.0 100.99     LegendNANA
07:30 Legend Double Dagger 9.4 4.0 69 26 27 10.0 100.96     LegendNANA
08:30 Legend Double Dagger 10.4 3.9 64 26 38 10.0 100.93     Mostly Cloudy
09:30 Legend Double Dagger 13.4 3.8 52 27 42 10.0 100.87     LegendNANA
10:30 Legend Double Dagger 15.6 5.6 51 27 29 10.0 100.87     LegendNANA
11:30 Legend Double Dagger 15.9 5.6 50 26 38 10.0 100.79     Mainly Clear
12:30 Legend Double Dagger 17.3 6.3 48 26 33 10.0 100.69     LegendNANA
13:30 Legend Double Dagger 17.2 5.3 45 27 48 10.0 100.57     LegendNANA
14:30 Legend Double Dagger 17.5 5.2 44 27 44 10.0 100.57     Mostly Cloudy
15:30 Legend Double Dagger 16.6 4.4 44 25 40 10.0 100.51     LegendNANA
16:30 Legend Double Dagger 15.2 4.1 47 26 45 10.0 100.46     LegendNANA
17:30 Legend Double Dagger 13.6 3.7 51 26 46 10.0 100.37     Mostly Cloudy
18:30 Legend Double Dagger 12.6 2.5 50 26 48 10.0 100.32     LegendNANA
19:30 Legend Double Dagger 11.1 0.6 48 26 49 10.0 100.33     LegendNANA
20:30 Legend Double Dagger 10.1 0.2 50 26 54 10.0 100.31     Mainly Clear
21:30 Legend Double Dagger 9.2 1.9 60 26 45 10.0 100.35     LegendNANA
22:30 Legend Double Dagger 9.0 1.0 57 26 41 10.0 100.33     LegendNANA
23:30 Legend Double Dagger 8.6 -0.7 52 25 35 10.0 100.29     Clear

Notes on Data Quality.

Legend

  • E = Estimated
  • M = Missing
  • NA = Not Available
  • ‡ = Partner data that is not subject to review by the National Climate Archives
Date modified: